Saint Bonnet de Bellac- Haute Vienne - France
Donnes mto: mercredi, 02/05/2012
Date Horaire Temp. E. Hum. E. P.atmo. Pluie Vent Direction Direction Ensoleilleme Solaire P. de rose Temp au vent Rafales
02/05/2012 00:00 9,6 C 78 % 1016,0 hPa 0,0 mm 0,0 km/h (0 Bft) E 90 0 min 0 W/m 6,0 C 9,6 C 0,0 km/h (0 Bft)
02/05/2012 00:10 9,3 C 79 % 1016,0 hPa 0,0 mm 0,0 km/h (0 Bft) E 90 0 min 0 W/m 5,8 C 9,3 C 0,0 km/h (0 Bft)
02/05/2012 00:20 9,1 C 80 % 1016,0 hPa 0,0 mm 0,0 km/h (0 Bft) E 90 0 min 0 W/m 5,8 C 9,1 C 0,0 km/h (0 Bft)
02/05/2012 00:30 8,9 C 80 % 1016,0 hPa 0,0 mm 0,0 km/h (0 Bft) E 90 0 min 0 W/m 5,6 C 8,9 C 0,0 km/h (0 Bft)
02/05/2012 00:40 8,8 C 81 % 1016,0 hPa 0,0 mm 0,0 km/h (0 Bft) E 90 0 min 0 W/m 5,7 C 8,8 C 0,0 km/h (0 Bft)
02/05/2012 00:50 8,8 C 81 % 1015,9 hPa 0,0 mm 0,0 km/h (0 Bft) E 90 0 min 0 W/m 5,7 C 8,8 C 0,0 km/h (0 Bft)
02/05/2012 01:00 8,8 C 82 % 1015,8 hPa 0,0 mm 0,0 km/h (0 Bft) E-NE 67 0 min 0 W/m 5,9 C 8,8 C 0,0 km/h (0 Bft)
02/05/2012 01:10 8,6 C 82 % 1015,7 hPa 0,0 mm 0,0 km/h (0 Bft) NE 45 0 min 0 W/m 5,7 C 8,6 C 0,0 km/h (0 Bft)
02/05/2012 01:20 8,6 C 82 % 1015,7 hPa 0,0 mm 0,0 km/h (0 Bft) NE 45 0 min 0 W/m 5,7 C 8,6 C 0,0 km/h (0 Bft)
02/05/2012 01:30 8,4 C 83 % 1015,9 hPa 0,0 mm 0,0 km/h (0 Bft) NE 45 0 min 0 W/m 5,7 C 8,4 C 0,0 km/h (0 Bft)
02/05/2012 01:40 8,4 C 84 % 1015,7 hPa 0,0 mm 0,0 km/h (0 Bft) NE 45 0 min 0 W/m 5,9 C 8,4 C 0,0 km/h (0 Bft)
02/05/2012 01:50 8,4 C 84 % 1015,7 hPa 0,0 mm 0,0 km/h (0 Bft) NE 45 0 min 0 W/m 5,9 C 8,4 C 0,0 km/h (0 Bft)
02/05/2012 02:00 8,3 C 84 % 1015,7 hPa 0,0 mm 0,0 km/h (0 Bft) N-NE 22 0 min 0 W/m 5,8 C 8,3 C 0,0 km/h (0 Bft)
02/05/2012 02:10 8,3 C 84 % 1015,6 hPa 0,0 mm 0,0 km/h (0 Bft) N-NE 22 0 min 0 W/m 5,8 C 8,3 C 3,6 km/h (1 Bft)
02/05/2012 02:20 8,2 C 84 % 1015,4 hPa 0,0 mm 0,0 km/h (0 Bft) N-NE 22 0 min 0 W/m 5,7 C 8,2 C 0,0 km/h (0 Bft)
02/05/2012 02:30 8,1 C 84 % 1015,4 hPa 0,0 mm 0,0 km/h (0 Bft) N-NE 22 0 min 0 W/m 5,6 C 8,1 C 0,0 km/h (0 Bft)
02/05/2012 02:40 8,0 C 85 % 1015,4 hPa 0,0 mm 0,0 km/h (0 Bft) N-NE 22 0 min 0 W/m 5,6 C 8,0 C 0,0 km/h (0 Bft)
02/05/2012 02:50 7,9 C 85 % 1015,4 hPa 0,0 mm 0,4 km/h (0 Bft) N-NO 337 0 min 0 W/m 5,5 C 7,9 C 0,4 km/h (0 Bft)
02/05/2012 03:02 7,8 C 85 % 1015,3 hPa 0,0 mm 0,0 km/h (0 Bft) N 360 0 min 0 W/m 5,4 C 7,8 C 0,0 km/h (0 Bft)
02/05/2012 03:10 7,8 C 85 % 1015,3 hPa 0,0 mm 0,0 km/h (0 Bft) N 360 0 min 0 W/m 5,4 C 7,8 C 0,0 km/h (0 Bft)
02/05/2012 03:20 7,8 C 85 % 1015,2 hPa 0,0 mm 0,4 km/h (0 Bft) NE 45 0 min 0 W/m 5,4 C 7,8 C 3,6 km/h (1 Bft)
02/05/2012 03:30 7,6 C 86 % 1015,2 hPa 0,0 mm 0,0 km/h (0 Bft) N-NE 22 0 min 0 W/m 5,4 C 7,6 C 0,0 km/h (0 Bft)
02/05/2012 03:40 7,4 C 86 % 1015,2 hPa 0,0 mm 0,0 km/h (0 Bft) N-NE 22 0 min 0 W/m 5,2 C 7,4 C 0,0 km/h (0 Bft)
02/05/2012 03:50 7,2 C 86 % 1015,2 hPa 0,0 mm 2,5 km/h (1 Bft) N-NE 22 0 min 0 W/m 5,0 C 7,2 C 4,7 km/h (1 Bft)
02/05/2012 04:00 7,1 C 87 % 1015,2 hPa 0,0 mm 0,4 km/h (0 Bft) N-NO 337 0 min 0 W/m 5,1 C 7,1 C 3,2 km/h (1 Bft)
02/05/2012 04:10 6,9 C 87 % 1015,3 hPa 0,0 mm 0,7 km/h (0 Bft) N-NE 22 0 min 0 W/m 4,9 C 6,9 C 4,0 km/h (1 Bft)
02/05/2012 04:20 6,9 C 87 % 1015,3 hPa 0,0 mm 0,7 km/h (0 Bft) N 360 0 min 0 W/m 4,9 C 6,9 C 2,9 km/h (1 Bft)
02/05/2012 04:30 6,9 C 87 % 1015,4 hPa 0,0 mm 0,4 km/h (0 Bft) N 360 0 min 0 W/m 4,9 C 6,9 C 3,6 km/h (1 Bft)
02/05/2012 04:40 6,9 C 87 % 1015,4 hPa 0,0 mm 0,4 km/h (0 Bft) N-NE 22 0 min 0 W/m 4,9 C 6,9 C 3,6 km/h (1 Bft)
02/05/2012 04:50 6,8 C 87 % 1015,4 hPa 0,0 mm 0,0 km/h (0 Bft) N-NE 22 0 min 0 W/m 4,8 C 6,8 C 0,0 km/h (0 Bft)
02/05/2012 05:00 6,8 C 87 % 1015,4 hPa 0,0 mm 0,0 km/h (0 Bft) N-NE 22 0 min 0 W/m 4,8 C 6,8 C 0,0 km/h (0 Bft)
02/05/2012 05:10 6,6 C 87 % 1015,3 hPa 0,0 mm 0,0 km/h (0 Bft) N-NE 22 0 min 0 W/m 4,6 C 6,6 C 0,0 km/h (0 Bft)
02/05/2012 05:20 6,5 C 88 % 1015,3 hPa 0,0 mm 0,0 km/h (0 Bft) N-NE 22 0 min 0 W/m 4,7 C 6,5 C 0,0 km/h (0 Bft)
02/05/2012 05:30 6,3 C 88 % 1015,2 hPa 0,0 mm 0,0 km/h (0 Bft) N-NE 22 0 min 0 W/m 4,5 C 6,3 C 0,0 km/h (0 Bft)
02/05/2012 05:40 6,3 C 88 % 1015,2 hPa 0,0 mm 0,0 km/h (0 Bft) N-NE 22 0 min 0 W/m 4,5 C 6,3 C 0,0 km/h (0 Bft)
02/05/2012 05:50 6,3 C 88 % 1015,2 hPa 0,0 mm 0,0 km/h (0 Bft) NE 45 0 min 0 W/m 4,5 C 6,3 C 0,0 km/h (0 Bft)
02/05/2012 06:00 6,1 C 88 % 1015,1 hPa 0,0 mm 0,0 km/h (0 Bft) NE 45 0 min 0 W/m 4,3 C 6,1 C 0,0 km/h (0 Bft)
02/05/2012 06:10 5,8 C 89 % 1015,2 hPa 0,0 mm 0,0 km/h (0 Bft) NE 45 0 min 0 W/m 4,1 C 5,8 C 0,0 km/h (0 Bft)
02/05/2012 06:20 5,6 C 89 % 1015,2 hPa 0,0 mm 0,0 km/h (0 Bft) NE 45 0 min 0 W/m 3,9 C 5,6 C 0,0 km/h (0 Bft)
02/05/2012 06:30 5,5 C 89 % 1015,2 hPa 0,0 mm 0,0 km/h (0 Bft) NE 45 0 min 0 W/m 3,8 C 5,5 C 0,0 km/h (0 Bft)
02/05/2012 06:40 5,4 C 89 % 1015,3 hPa 0,0 mm 0,0 km/h (0 Bft) NE 45 0 min 0 W/m 3,7 C 5,4 C 0,0 km/h (0 Bft)
02/05/2012 06:50 5,3 C 89 % 1015,3 hPa 0,0 mm 0,0 km/h (0 Bft) NE 45 0 min 0 W/m 3,6 C 5,3 C 0,0 km/h (0 Bft)
02/05/2012 07:00 5,1 C 89 % 1015,3 hPa 0,0 mm 0,0 km/h (0 Bft) NE 45 2 min 0 W/m 3,4 C 5,1 C 0,0 km/h (0 Bft)
02/05/2012 07:10 5,1 C 89 % 1015,4 hPa 0,0 mm 0,0 km/h (0 Bft) NE 45 2 min 0 W/m 3,4 C 5,1 C 0,0 km/h (0 Bft)
02/05/2012 07:20 4,9 C 89 % 1015,4 hPa 0,0 mm 0,0 km/h (0 Bft) NE 45 2 min 0 W/m 3,2 C 4,9 C 0,0 km/h (0 Bft)
02/05/2012 07:30 4,8 C 89 % 1015,4 hPa 0,0 mm 0,0 km/h (0 Bft) NE 45 2 min 0 W/m 3,1 C 4,8 C 0,0 km/h (0 Bft)
02/05/2012 07:40 4,8 C 89 % 1015,4 hPa 0,0 mm 0,0 km/h (0 Bft) NE 45 2 min 0 W/m 3,1 C 4,8 C 0,0 km/h (0 Bft)
02/05/2012 07:50 4,8 C 90 % 1015,4 hPa 0,0 mm 0,0 km/h (0 Bft) NE 45 2 min 0 W/m 3,3 C 4,8 C 0,0 km/h (0 Bft)
02/05/2012 08:00 5,0 C 90 % 1015,6 hPa 0,0 mm 0,4 km/h (0 Bft) NE 45 2 min 0 W/m 3,5 C 5,0 C 0,4 km/h (0 Bft)
02/05/2012 08:10 5,3 C 90 % 1015,6 hPa 0,0 mm 0,0 km/h (0 Bft) E-NE 67 2 min 0 W/m 3,8 C 5,3 C 0,0 km/h (0 Bft)
02/05/2012 08:20 5,8 C 90 % 1015,6 hPa 0,0 mm 0,0 km/h (0 Bft) E 90 2 min 0 W/m 4,3 C 5,8 C 0,0 km/h (0 Bft)
02/05/2012 08:30 6,2 C 91 % 1015,5 hPa 0,0 mm 0,0 km/h (0 Bft) E 90 2 min 0 W/m 4,8 C 6,2 C 0,0 km/h (0 Bft)
02/05/2012 08:40 6,5 C 91 % 1015,6 hPa 0,0 mm 0,0 km/h (0 Bft) E-NE 67 2 min 0 W/m 5,1 C 6,5 C 0,0 km/h (0 Bft)
02/05/2012 08:50 6,8 C 91 % 1015,6 hPa 0,0 mm 0,0 km/h (0 Bft) E-NE 67 2 min 0 W/m 5,4 C 6,8 C 0,0 km/h (0 Bft)
02/05/2012 09:00 7,2 C 92 % 1015,7 hPa 0,0 mm 0,0 km/h (0 Bft) N-NE 22 2 min 0 W/m 6,0 C 7,2 C 0,0 km/h (0 Bft)
02/05/2012 09:10 7,8 C 92 % 1015,8 hPa 0,0 mm 0,0 km/h (0 Bft) NE 45 2 min 0 W/m 6,6 C 7,8 C 0,0 km/h (0 Bft)
02/05/2012 09:20 8,6 C 92 % 1015,9 hPa 0,0 mm 0,0 km/h (0 Bft) E-NE 67 2 min 0 W/m 7,4 C 8,6 C 0,0 km/h (0 Bft)
02/05/2012 09:30 9,4 C 92 % 1016,1 hPa 0,0 mm 1,1 km/h (1 Bft) E-NE 67 2 min 0 W/m 8,2 C 9,4 C 1,1 km/h (1 Bft)
02/05/2012 09:40 10,3 C 93 % 1016,0 hPa 0,0 mm 0,0 km/h (0 Bft) E-NE 67 2 min 0 W/m 9,2 C 10,3 C 0,0 km/h (0 Bft)
02/05/2012 09:50 11,1 C 92 % 1016,1 hPa 0,0 mm 1,8 km/h (1 Bft) E-NE 67 2 min 0 W/m 9,8 C 11,1 C 4,0 km/h (1 Bft)
02/05/2012 10:00 11,9 C 92 % 1016,2 hPa 0,0 mm 0,7 km/h (0 Bft) E-NE 67 2 min 0 W/m 10,6 C 11,9 C 4,0 km/h (1 Bft)
02/05/2012 10:10 12,8 C 91 % 1016,2 hPa 0,0 mm 0,7 km/h (0 Bft) E-NE 67 2 min 0 W/m 11,4 C 12,8 C 3,2 km/h (1 Bft)
02/05/2012 10:20 13,7 C 88 % 1016,1 hPa 0,0 mm 1,1 km/h (1 Bft) E-NE 67 2 min 0 W/m 11,7 C 13,7 C 4,0 km/h (1 Bft)
02/05/2012 10:30 14,6 C 87 % 1016,1 hPa 0,0 mm 2,5 km/h (1 Bft) NE 45 2 min 0 W/m 12,5 C 14,6 C 5,8 km/h (2 Bft)
02/05/2012 10:40 15,4 C 83 % 1016,0 hPa 0,0 mm 0,0 km/h (0 Bft) NE 45 2 min 0 W/m 12,5 C 15,4 C 0,0 km/h (0 Bft)
02/05/2012 10:50 16,3 C 79 % 1015,9 hPa 0,0 mm 2,5 km/h (1 Bft) NE 45 2 min 0 W/m 12,6 C 16,3 C 3,6 km/h (1 Bft)
02/05/2012 11:00 17,1 C 77 % 1015,9 hPa 0,0 mm 1,8 km/h (1 Bft) NE 45 2 min 0 W/m 13,0 C 17,1 C 4,3 km/h (1 Bft)
02/05/2012 11:10 17,6 C 74 % 1016,1 hPa 0,0 mm 0,0 km/h (0 Bft) NE 45 2 min 0 W/m 12,9 C 17,6 C 0,0 km/h (0 Bft)
02/05/2012 11:20 18,2 C 70 % 1016,0 hPa 0,0 mm 5,0 km/h (1 Bft) NE 45 2 min 0 W/m 12,6 C 18,2 C 7,6 km/h (2 Bft)
02/05/2012 11:30 18,4 C 67 % 1015,9 hPa 0,0 mm 6,1 km/h (2 Bft) NE 45 2 min 0 W/m 12,2 C 18,4 C 9,7 km/h (2 Bft)
02/05/2012 11:40 18,6 C 67 % 1015,9 hPa 0,0 mm 7,6 km/h (2 Bft) NE 45 2 min 0 W/m 12,3 C 18,6 C 9,4 km/h (2 Bft)
02/05/2012 11:50 18,9 C 67 % 1015,9 hPa 0,0 mm 1,8 km/h (1 Bft) N-NE 22 2 min 0 W/m 12,6 C 18,9 C 3,2 km/h (1 Bft)
02/05/2012 12:00 19,3 C 65 % 1015,9 hPa 0,0 mm 5,8 km/h (2 Bft) E-NE 67 2 min 0 W/m 12,6 C 19,3 C 7,9 km/h (2 Bft)
02/05/2012 12:10 19,4 C 61 % 1015,8 hPa 0,0 mm 10,1 km/h (2 Bft) N-NO 337 2 min 0 W/m 11,7 C 19,4 C 12,6 km/h (3 Bft)
02/05/2012 12:20 19,6 C 62 % 1015,8 hPa 0,0 mm 4,3 km/h (1 Bft) NE 45 2 min 0 W/m 12,1 C 19,6 C 7,6 km/h (2 Bft)
02/05/2012 12:30 19,9 C 60 % 1015,9 hPa 0,0 mm 5,4 km/h (2 Bft) NE 45 2 min 0 W/m 11,9 C 19,9 C 9,0 km/h (2 Bft)
02/05/2012 12:40 19,9 C 58 % 1015,8 hPa 0,0 mm 6,5 km/h (2 Bft) N-NE 22 2 min 0 W/m 11,4 C 19,9 C 9,0 km/h (2 Bft)
02/05/2012 12:50 19,9 C 59 % 1015,7 hPa 0,0 mm 5,0 km/h (1 Bft) N-NE 22 2 min 0 W/m 11,6 C 19,9 C 5,0 km/h (1 Bft)
02/05/2012 13:00 20,2 C 57 % 1015,7 hPa 0,0 mm 9,0 km/h (2 Bft) NE 45 2 min 0 W/m 11,4 C 20,2 C 13,0 km/h (3 Bft)
02/05/2012 13:10 20,3 C 56 % 1015,6 hPa 0,0 mm 4,3 km/h (1 Bft) N 360 2 min 0 W/m 11,2 C 20,3 C 8,6 km/h (2 Bft)
02/05/2012 13:20 20,3 C 56 % 1015,6 hPa 0,0 mm 4,3 km/h (1 Bft) NO 315 2 min 0 W/m 11,2 C 20,3 C 12,2 km/h (2 Bft)
02/05/2012 13:30 20,4 C 56 % 1015,4 hPa 0,0 mm 2,5 km/h (1 Bft) N-NE 22 2 min 0 W/m 11,3 C 20,4 C 8,6 km/h (2 Bft)
02/05/2012 13:40 20,4 C 56 % 1015,4 hPa 0,0 mm 4,3 km/h (1 Bft) NE 45 2 min 0 W/m 11,3 C 20,4 C 4,3 km/h (1 Bft)
02/05/2012 13:50 20,2 C 57 % 1015,4 hPa 0,0 mm 5,8 km/h (2 Bft) N-NE 22 2 min 0 W/m 11,4 C 20,2 C 7,9 km/h (2 Bft)
02/05/2012 14:00 19,8 C 55 % 1015,4 hPa 0,0 mm 5,4 km/h (2 Bft) N-NE 22 2 min 0 W/m 10,5 C 19,8 C 6,8 km/h (2 Bft)
02/05/2012 14:10 19,6 C 58 % 1015,3 hPa 0,0 mm 8,6 km/h (2 Bft) N-NE 22 2 min 0 W/m 11,1 C 19,6 C 13,0 km/h (3 Bft)
02/05/2012 14:20 19,8 C 56 % 1015,2 hPa 0,0 mm 9,4 km/h (2 Bft) N-NE 22 2 min 0 W/m 10,8 C 19,8 C 10,4 km/h (2 Bft)
02/05/2012 14:30 20,0 C 52 % 1015,2 hPa 0,0 mm 7,6 km/h (2 Bft) N-NE 22 2 min 0 W/m 9,8 C 20,0 C 9,4 km/h (2 Bft)
02/05/2012 14:40 20,2 C 53 % 1015,1 hPa 0,0 mm 2,2 km/h (1 Bft) NO 315 2 min 0 W/m 10,3 C 20,2 C 6,1 km/h (2 Bft)
02/05/2012 14:50 20,4 C 52 % 1015,1 hPa 0,0 mm 6,8 km/h (2 Bft) N-NE 22 2 min 0 W/m 10,2 C 20,4 C 8,3 km/h (2 Bft)
02/05/2012 15:00 20,6 C 53 % 1015,0 hPa 0,0 mm 3,2 km/h (1 Bft) NO 315 2 min 0 W/m 10,7 C 20,6 C 4,0 km/h (1 Bft)
02/05/2012 15:10 20,9 C 53 % 1015,0 hPa 0,0 mm 3,2 km/h (1 Bft) O-NO 292 2 min 0 W/m 11,0 C 20,9 C 6,8 km/h (2 Bft)
02/05/2012 15:20 21,1 C 51 % 1014,9 hPa 0,0 mm 7,6 km/h (2 Bft) N-NE 22 2 min 0 W/m 10,6 C 21,1 C 10,8 km/h (2 Bft)
02/05/2012 15:30 21,1 C 51 % 1014,9 hPa 0,0 mm 5,4 km/h (2 Bft) N-NE 22 2 min 0 W/m 10,6 C 21,1 C 8,3 km/h (2 Bft)
02/05/2012 15:40 20,9 C 52 % 1014,9 hPa 0,0 mm 5,8 km/h (2 Bft) N-NE 22 2 min 0 W/m 10,7 C 20,9 C 10,1 km/h (2 Bft)
02/05/2012 15:50 20,8 C 51 % 1014,8 hPa 0,0 mm 4,7 km/h (1 Bft) NE 45 2 min 0 W/m 10,3 C 20,8 C 4,7 km/h (1 Bft)
02/05/2012 16:00 20,6 C 51 % 1014,7 hPa 0,0 mm 9,7 km/h (2 Bft) NE 45 2 min 0 W/m 10,1 C 20,6 C 16,9 km/h (3 Bft)
02/05/2012 16:10 20,4 C 51 % 1014,7 hPa 0,0 mm 6,5 km/h (2 Bft) N-NE 22 2 min 0 W/m 9,9 C 20,4 C 8,3 km/h (2 Bft)
02/05/2012 16:20 20,4 C 53 % 1014,6 hPa 0,0 mm 4,3 km/h (1 Bft) NE 45 2 min 0 W/m 10,5 C 20,4 C 4,3 km/h (1 Bft)
02/05/2012 16:30 20,4 C 53 % 1014,6 hPa 0,0 mm 6,5 km/h (2 Bft) NE 45 0 min 0 W/m 10,5 C 20,4 C 8,6 km/h (2 Bft)
02/05/2012 16:40 20,5 C 53 % 1014,6 hPa 0,0 mm 6,1 km/h (2 Bft) N-NE 22 0 min 0 W/m 10,6 C 20,5 C 11,5 km/h (2 Bft)
02/05/2012 16:50 20,6 C 51 % 1014,4 hPa 0,0 mm 5,8 km/h (2 Bft) NE 45 0 min 0 W/m 10,1 C 20,6 C 7,6 km/h (2 Bft)
02/05/2012 17:00 20,8 C 51 % 1014,2 hPa 0,0 mm 1,4 km/h (1 Bft) N 360 0 min 0 W/m 10,3 C 20,8 C 1,4 km/h (1 Bft)
02/05/2012 17:10 20,9 C 49 % 1014,2 hPa 0,0 mm 5,4 km/h (2 Bft) N-NE 22 0 min 0 W/m 9,8 C 20,9 C 11,2 km/h (2 Bft)
02/05/2012 17:20 20,6 C 49 % 1014,0 hPa 0,0 mm 5,0 km/h (1 Bft) N-NE 22 0 min 0 W/m 9,5 C 20,6 C 7,2 km/h (2 Bft)
02/05/2012 17:30 20,4 C 49 % 1014,0 hPa 0,0 mm 2,9 km/h (1 Bft) N-NE 22 0 min 0 W/m 9,3 C 20,4 C 7,6 km/h (2 Bft)
02/05/2012 17:40 20,4 C 49 % 1013,9 hPa 0,0 mm 5,0 km/h (1 Bft) NE 45 0 min 0 W/m 9,3 C 20,4 C 5,0 km/h (1 Bft)
02/05/2012 17:50 20,4 C 49 % 1013,9 hPa 0,0 mm 4,7 km/h (1 Bft) E-NE 67 0 min 0 W/m 9,3 C 20,4 C 7,2 km/h (2 Bft)
02/05/2012 18:00 20,5 C 50 % 1014,0 hPa 0,0 mm 2,2 km/h (1 Bft) N 360 0 min 0 W/m 9,7 C 20,5 C 4,0 km/h (1 Bft)
02/05/2012 18:10 20,5 C 51 % 1013,9 hPa 0,0 mm 6,1 km/h (2 Bft) NE 45 0 min 0 W/m 10,0 C 20,5 C 9,7 km/h (2 Bft)
02/05/2012 18:20 20,1 C 52 % 1013,8 hPa 0,0 mm 1,1 km/h (1 Bft) N-NE 22 0 min 0 W/m 9,9 C 20,1 C 6,8 km/h (2 Bft)
02/05/2012 18:30 19,9 C 52 % 1013,7 hPa 0,0 mm 7,2 km/h (2 Bft) N-NO 337 0 min 0 W/m 9,7 C 19,9 C 13,0 km/h (3 Bft)
02/05/2012 18:40 20,0 C 51 % 1013,7 hPa 0,0 mm 4,0 km/h (1 Bft) N-NE 22 0 min 0 W/m 9,6 C 20,0 C 7,2 km/h (2 Bft)
02/05/2012 18:50 19,6 C 53 % 1013,7 hPa 0,0 mm 6,8 km/h (2 Bft) N 360 0 min 0 W/m 9,8 C 19,6 C 9,7 km/h (2 Bft)
02/05/2012 19:00 19,1 C 54 % 1013,6 hPa 0,0 mm 7,2 km/h (2 Bft) N-NE 22 2 min 0 W/m 9,6 C 19,1 C 8,3 km/h (2 Bft)
02/05/2012 19:10 18,5 C 56 % 1013,7 hPa 0,0 mm 1,8 km/h (1 Bft) NE 45 2 min 0 W/m 9,6 C 18,5 C 4,3 km/h (1 Bft)
02/05/2012 19:20 18,4 C 57 % 1013,7 hPa 0,0 mm 5,4 km/h (2 Bft) NE 45 2 min 0 W/m 9,7 C 18,4 C 9,0 km/h (2 Bft)
02/05/2012 19:30 18,4 C 58 % 1013,8 hPa 0,0 mm 7,6 km/h (2 Bft) N-NE 22 2 min 0 W/m 10,0 C 18,4 C 11,2 km/h (2 Bft)
02/05/2012 19:40 18,4 C 57 % 1013,9 hPa 0,0 mm 5,4 km/h (2 Bft) NE 45 2 min 0 W/m 9,7 C 18,4 C 10,1 km/h (2 Bft)
02/05/2012 19:50 18,1 C 56 % 1013,9 hPa 0,0 mm 7,6 km/h (2 Bft) N-NO 337 2 min 0 W/m 9,2 C 18,1 C 10,1 km/h (2 Bft)
02/05/2012 20:00 17,8 C 56 % 1014,1 hPa 0,0 mm 7,6 km/h (2 Bft) NE 45 2 min 0 W/m 8,9 C 17,8 C 7,6 km/h (2 Bft)
02/05/2012 20:10 17,4 C 57 % 1014,2 hPa 0,0 mm 3,6 km/h (1 Bft) N-NE 22 2 min 0 W/m 8,8 C 17,4 C 6,8 km/h (2 Bft)
02/05/2012 20:20 16,9 C 58 % 1014,2 hPa 0,0 mm 6,8 km/h (2 Bft) NE 45 2 min 0 W/m 8,6 C 16,9 C 9,0 km/h (2 Bft)
02/05/2012 20:30 16,5 C 59 % 1014,3 hPa 0,0 mm 5,0 km/h (1 Bft) NE 45 2 min 0 W/m 8,5 C 16,5 C 6,1 km/h (2 Bft)
02/05/2012 20:40 16,0 C 60 % 1014,4 hPa 0,0 mm 5,0 km/h (1 Bft) NE 45 2 min 0 W/m 8,2 C 16,0 C 8,6 km/h (2 Bft)
02/05/2012 20:50 15,6 C 60 % 1014,4 hPa 0,0 mm 6,8 km/h (2 Bft) N-NE 22 2 min 0 W/m 7,9 C 15,6 C 6,8 km/h (2 Bft)
02/05/2012 21:00 15,1 C 61 % 1014,4 hPa 0,0 mm 2,9 km/h (1 Bft) NE 45 0 min 0 W/m 7,6 C 15,1 C 4,3 km/h (1 Bft)
02/05/2012 21:10 14,7 C 62 % 1014,5 hPa 0,0 mm 0,7 km/h (0 Bft) NE 45 0 min 0 W/m 7,5 C 14,7 C 4,0 km/h (1 Bft)
02/05/2012 21:20 14,3 C 63 % 1014,5 hPa 0,0 mm 0,0 km/h (0 Bft) N-NE 22 0 min 0 W/m 7,4 C 14,3 C 0,0 km/h (0 Bft)
02/05/2012 21:30 13,8 C 64 % 1014,6 hPa 0,0 mm 2,2 km/h (1 Bft) NE 45 0 min 0 W/m 7,1 C 13,8 C 4,3 km/h (1 Bft)
02/05/2012 21:40 13,4 C 65 % 1014,5 hPa 0,0 mm 2,5 km/h (1 Bft) NE 45 0 min 0 W/m 7,0 C 13,4 C 4,3 km/h (1 Bft)
02/05/2012 21:50 13,1 C 65 % 1014,6 hPa 0,0 mm 1,1 km/h (1 Bft) N-NE 22 0 min 0 W/m 6,7 C 13,1 C 3,2 km/h (1 Bft)
02/05/2012 22:00 12,8 C 66 % 1014,7 hPa 0,0 mm 0,0 km/h (0 Bft) E-NE 67 0 min 0 W/m 6,6 C 12,8 C 0,0 km/h (0 Bft)
02/05/2012 22:10 12,4 C 67 % 1014,8 hPa 0,0 mm 0,0 km/h (0 Bft) E-NE 67 0 min 0 W/m 6,4 C 12,4 C 0,0 km/h (0 Bft)
02/05/2012 22:20 12,0 C 68 % 1014,8 hPa 0,0 mm 0,0 km/h (0 Bft) NE 45 0 min 0 W/m 6,3 C 12,0 C 0,0 km/h (0 Bft)
02/05/2012 22:30 11,7 C 69 % 1014,7 hPa 0,0 mm 1,4 km/h (1 Bft) N-NE 22 0 min 0 W/m 6,2 C 11,7 C 3,2 km/h (1 Bft)
02/05/2012 22:40 11,4 C 69 % 1014,6 hPa 0,0 mm 0,0 km/h (0 Bft) N-NE 22 0 min 0 W/m 5,9 C 11,4 C 0,0 km/h (0 Bft)
02/05/2012 22:50 11,2 C 70 % 1014,6 hPa 0,0 mm 0,0 km/h (0 Bft) N-NE 22 0 min 0 W/m 5,9 C 11,2 C 0,0 km/h (0 Bft)
02/05/2012 23:00 10,8 C 71 % 1014,6 hPa 0,0 mm 1,1 km/h (1 Bft) E-NE 67 0 min 0 W/m 5,8 C 10,8 C 1,1 km/h (1 Bft)
02/05/2012 23:10 10,6 C 72 % 1014,6 hPa 0,0 mm 0,0 km/h (0 Bft) E-NE 67 0 min 0 W/m 5,8 C 10,6 C 3,2 km/h (1 Bft)
02/05/2012 23:20 10,4 C 73 % 1014,6 hPa 0,0 mm 0,0 km/h (0 Bft) N 360 0 min 0 W/m 5,8 C 10,4 C 0,0 km/h (0 Bft)
02/05/2012 23:30 10,4 C 75 % 1014,6 hPa 0,0 mm 0,0 km/h (0 Bft) E-NE 67 0 min 0 W/m 6,2 C 10,4 C 0,0 km/h (0 Bft)
02/05/2012 23:40 10,3 C 75 % 1014,7 hPa 0,0 mm 0,0 km/h (0 Bft) E 90 0 min 0 W/m 6,1 C 10,3 C 0,0 km/h (0 Bft)
02/05/2012 23:50 10,1 C 75 % 1014,5 hPa 0,0 mm 0,0 km/h (0 Bft) E 90 0 min 0 W/m 5,9 C 10,1 C 0,0 km/h (0 Bft)
_ Min-Heure 07:50 17:50 19:00 - 23:50 - - - - 07:40 07:50 23:50
Minimum _ 4,8 C 49 % 1013,6 hPa - 0,0 km/h (0 Bft) - - - - 3,1 C 4,8 C 0,0 km/h (0 Bft)
_ Max-Heure 15:30 09:40 10:10 23:50 12:10 - - 20:50 23:50 11:00 15:30 16:00
Maximum _ 21,1 C 93 % 1016,2 hPa 0,0 mm 10,1 km/h
N-NO (2 Bft)
- - 2 min 0 W/m 13,0 C 21,1 C 16,9 km/h
NE (3 Bft)
Moyenne _ 13,3 C 72 % 1015,1 hPa #0,0 mm 2,4 km/h (1 Bft) NE - #2:18 h 0 W/m 7,8 C 13,3 C 4,0 km/h (1 Bft)
Saint Bonnet de Bellac- Haute Vienne - France